This demonstration page uses our WeatherBlox Daily Observations layout. Learn more.

36.17497, -115.13722

Hourly Observations for February 26, 2018

Temp ( °F °C ) Dew Point ( °F °C ) Humidity (%) Winds ( mph kmh ) Pressure ( in mb ) Visibility ( mi km ) Precip ( " mm )
12:53 am 00:53 Clear 37 2.8 12 -11.1 36 36 NW 3 6 30.16 1021 10 16.0934 0 0
1:53 am 01:53 Clear 36 2.2 12 -11.1 37 37 NW 6 9 30.14 1021 10 16.0934 0 0
2:53 am 02:53 Clear 35 1.7 12 -11.1 38 38 NNW 3 6 30.11 1020 10 16.0934 0 0
3:53 am 03:53 Clear 34 1.1 13 -10.6 42 42 NW 6 9 30.1 1019 10 16.0934 0 0
4:53 am 04:53 Clear 32 0 11 -11.7 41 41 N 3 6 30.09 1019 10 16.0934 0 0
5:53 am 05:53 Clear 34 1.1 9 -12.8 35 35 Calm 30.08 1019 10 16.0934 0 0
6:53 am 06:53 Sunny 35 1.7 6 -14.4 29 29 S 8 13 30.08 1019 10 16.0934 0 0
7:53 am 07:53 Sunny 39 3.9 6 -14.4 25 25 SE 7 11 30.08 1019 10 16.0934 0 0
8:53 am 08:53 Sunny 44 6.7 7 -13.9 22 22 ESE 8 13 30.07 1018 10 16.0934 0 0
9:53 am 09:53 Sunny 46 7.8 8 -13.3 21 21 SE 10 17 30.04 1017 10 16.0934 0 0
10:53 am 10:53 Sunny 49 9.4 9 -12.8 20 20 SE 9 15 30.02 1017 10 16.0934 0 0
11:53 am 11:53 Sunny 54 12.2 9 -12.8 16 16 SE 12 19 29.96 1015 10 16.0934 0 0
12:53 pm 12:53 Sunny 58 14.4 7 -13.9 13 13 SE 13 20 29.91 1013 10 16.0934 0 0
1:53 pm 13:53 Sunny 61 16.1 7 -13.9 11 11 ESE 15 24 29.85 1011 10 16.0934 0 0
2:53 pm 14:53 Sunny 64 17.8 5 -15 9 9 SSW 13 20 29.81 1010 10 16.0934 0 0
3:53 pm 15:53 Sunny 63 17.2 4 -15.6 9 9 SSW 20 31 29.79 1009 10 16.0934 0 0
4:53 pm 16:53 Sunny 62 16.7 4 -15.6 10 10 SW 15 24 29.79 1009 10 16.0934 0 0
5:53 pm 17:53 Clear 60 15.6 7 -13.9 12 12 S 10 17 29.78 1009 10 16.0934 0 0
6:53 pm 18:53 Clear 56 13.3 7 -13.9 14 14 S 15 24 29.79 1009 10 16.0934 0 0
7:53 pm 19:53 Clear 55 12.8 7 -13.9 14 14 S 15 24 29.81 1009 10 16.0934 0 0
8:53 pm 20:53 Clear 54 12.2 8 -13.3 16 16 SSW 12 19 29.81 1010 10 16.0934 0 0
9:53 pm 21:53 Clear 53 11.7 8 -13.3 16 16 SSW 7 11 29.82 1010 10 16.0934 0 0
10:53 pm 22:53 Clear 47 8.3 9 -12.8 21 21 SSE 6 9 29.83 1010 10 16.0934 0 0
11:53 pm 23:53 Clear 50 10 11 -11.7 21 21 S 10 17 29.82 1010 10 16.0934 0 0

Powered by AerisWeather